[[[{"header":{"parameterUnit":"kt","parameterCategory":2,"dx":1,"dy":1,"la1":30.253999710083008,"la2":30.299108505249023,"lo1":-89.0895004272461,"lo2":-89.04439544677734,"nx":28,"ny":28,"refTime":"2022-09-17T21:00:00:Z","depth":0,"parameterNumber":1,"parameterNumberName":"U-component_of_WINDS"},"data":[-6.2763,-6.285,-6.279,-6.2863,-6.2821,-6.2863,-6.2859,-6.2848,-6.2824,-6.287,-6.2887,-6.2838,-6.2793,-6.2802,-6.282,-6.2798,-6.2812,-6.2889,-6.2851,-6.2556,-6.2512,-6.2469,-6.2443,-6.2892,-6.2892,-6.3165,-6.3168,-6.317,-6.2562,-6.2521,-6.254,-6.2518,-6.2535,-6.2425,-6.24,-6.2423,-6.2464,-6.2435,-6.2446,-6.2483,-6.2505,-6.2432,-6.2444,-6.2489,-6.244,-6.2498,-6.2494,-6.249,-6.2173,-6.2145,-6.2538,-6.2538,-6.2538,-6.2538,-6.2538,-6.2538,-6.218,-6.2234,-6.2182,-6.2202,-6.2174,-6.216,-6.2203,-6.2136,-6.2157,-6.2156,-6.208,-6.2126,-6.2087,-6.207,-6.205,-6.2087,-6.2012,-6.2057,-6.2069,-6.2083,-6.2108,-6.1731,-6.2086,-6.2085,-6.2083,-6.2082,-6.2081,0,-6.1881,-6.1826,-6.1837,-6.1833,-6.1843,-6.1833,-6.1814,-6.1839,-6.1699,-6.1722,-6.1751,-6.1757,-6.1772,-6.1795,-6.1791,-6.1759,-6.1649,-6.163,-6.1661,-6.1701,-6.1739,-6.1724,-6.1213,-6.162,-6.1616,-6.1613,-6.161,-6.1609,-6.1494,-6.1562,-6.1475,-6.1493,-6.1464,-6.1495,-6.15,-6.137,-6.1383,-6.1342,-6.1398,-6.1416,-6.1424,-6.1483,-6.1407,-6.1419,-6.1366,-6.1529,-6.1367,-6.1404,-6.1373,-6.1372,-6.138,-6.1564,-6.157,-6.1574,-6.1578,0,-6.1284,-6.1176,-6.126,-6.1166,-6.1145,-6.1225,-6.1146,-6.1195,-6.1123,-6.1182,-6.1188,-6.1077,-6.1108,-6.1003,-6.1018,-6.0963,-6.1104,-6.105,-6.1118,-6.1103,-6.1241,-6.1231,-6.1698,-6.1755,-6.1285,-6.1289,-6.1293,0,-6.0912,-6.1006,-6.0841,-6.0895,-6.0997,-6.086,-6.0966,-6.0913,-6.087,-6.0915,-6.0768,-6.0814,-6.067,-6.0703,-6.0622,-6.0717,-6.0718,-6.0683,-6.0661,-6.0698,-6.0703,-6.0705,-6.0685,-6.0602,-6.06,-6.0598,-6.0596,0,-6.0594,-6.0613,-6.0699,-6.0686,-6.0593,-6.0639,-6.0603,-6.0552,-6.0559,-6.055,-6.0554,-6.0555,-6.0557,-6.0563,-6.0457,-6.0352,-6.0569,-6.0403,-6.0534,-6.0537,-6.0588,-6.0587,-6.1025,-6.0593,-6.0592,-6.0592,-6.0591,0,-6.0277,-6.0264,-6.0405,-6.0324,-6.0334,-6.0392,-6.038,-6.0404,-6.0362,-6.0311,-6.0303,-6.0192,-6.0261,-6.0105,-6.0201,-6.0094,-6.0106,-6.0077,-6.0084,-6.0085,-5.9913,-6.0179,-6.0604,-6.0646,-6.0088,-6.0083,-6.0079,0,-5.9945,-6.0055,-5.9934,-6.0071,-6.0107,-5.9936,-5.9998,-5.9962,-5.9899,-5.9924,-5.9855,-5.9884,-5.9743,-5.9738,-5.9799,-5.9731,-5.9871,-5.9709,-5.9755,-5.9758,-5.9774,-6.0163,-6.0254,-6.0522,-6.0024,-6.003,-6.0034,0,-5.9673,-5.9551,-5.9584,-5.9563,-5.9487,-5.9515,-5.9587,-5.9581,-5.9604,-5.9578,-5.9637,-5.9673,-5.9569,-5.956,-5.9468,-5.9538,-5.9773,-5.9418,-5.9414,-5.9489,-5.9985,-6.0072,-6.0117,-5.9697,-5.9703,-5.9708,-5.999,0,-5.9224,-5.9262,-5.9342,-5.9297,-5.93,-5.9377,-5.9254,-5.9275,-5.9184,-5.9114,-5.9196,-5.9136,-5.9134,-5.9154,-5.9066,-5.9257,-5.9209,-5.9097,-5.8937,-5.9192,-5.9283,-5.9319,-5.8813,-5.8807,-5.8803,-5.8799,0,0,-5.8936,-5.8984,-5.8846,-5.8905,-5.8899,-5.8716,-5.881,-5.8784,-5.8735,-5.8737,-5.8646,-5.8689,-5.8644,-5.8757,-5.8827,-5.8825,-5.885,-5.8763,-5.9071,-5.9102,-5.913,-5.9228,-5.9268,-5.8791,-5.8789,-5.8788,-5.8786,0,-5.8744,-5.8694,-5.8784,-5.8749,-5.8691,-5.8609,-5.8632,-5.8543,-5.8501,-5.8576,-5.8427,-5.8462,-5.8497,-5.8471,-5.8462,-5.8746,-5.8633,-5.8754,-5.8949,-5.9029,-5.9066,-5.9098,-5.9203,-5.9242,-5.8775,-5.8776,-5.8776,0,-5.8456,-5.8387,-5.8416,-5.8387,-5.8348,-5.8387,-5.8188,-5.8236,-5.8265,-5.8064,-5.8141,-5.8092,-5.8045,-5.8165,-5.8214,-5.8133,-5.8444,-5.8322,-5.8348,-5.8351,-5.8423,-5.8467,-5.8507,-5.7986,-5.7983,-5.7981,0,0,-5.8309,-5.8339,-5.8222,-5.8337,-5.8322,-5.8199,-5.8207,-5.8114,-5.8071,-5.8056,-5.7988,-5.7955,-5.7974,-5.799,-5.8001,-5.8149,-5.8131,-5.823,-5.8267,-5.8298,-5.8318,-5.8399,-5.8443,-5.7973,-5.7973,-5.7972,0,0,-5.8238,-5.8105,-5.8018,-5.8133,-5.8097,-5.7991,-5.8067,-5.7959,-5.7955,-5.7932,-5.7781,-5.7766,-5.7875,-5.7832,-5.7732,-5.7942,-5.7786,-5.7807,-5.7966,-5.8011,-5.8047,-5.8056,-5.7521,0,0,0,0,0,-5.7977,-5.8121,-5.8043,-5.8043,-5.8006,-5.8034,-5.8029,-5.7904,-5.7796,-5.7861,-5.7787,-5.7663,-5.7748,-5.7656,-5.7661,-5.7774,-5.7863,-5.7882,-5.7901,-5.814,-5.8188,-5.823,0,0,0,0,0,0,-5.7975,-5.7976,-5.8039,-5.7941,-5.7931,-5.8027,-5.7817,-5.7788,-5.7786,-5.7761,-5.7681,-5.766,-5.7557,-5.7645,-5.7651,-5.7761,-5.7518,-5.7871,-5.7887,-5.7902,-5.8156,-5.8196,-5.823,0,0,0,0,0,-5.7974,-5.7974,-5.7945,-5.7938,-5.7929,-5.7799,-5.7811,-5.7784,-5.7781,-5.7666,-5.7641,-5.7687,-5.7564,-5.7561,-5.7648,-5.7761,-5.7513,-5.7516,-5.7881,-5.7894,-5.7906,-5.8176,0,0,0,0,0,0,-5.7973,-5.7952,-5.7941,-5.7934,-5.7872,-5.7791,-5.7774,-5.7782,-5.7683,-5.766,-5.7665,-5.7646,-5.757,-5.7566,-5.7565,-5.7768,-5.7508,-5.7511,-5.7513,-5.7891,-5.7901,-5.7911,0,0,0,0,0,0,-5.795,-5.7947,-5.7937,-5.7861,-5.7844,-5.7785,-5.7769,-5.7825,-5.7685,-5.7687,-5.7668,-5.7658,-5.7574,-5.7572,-5.757,-5.7661,-5.7505,-5.7508,-5.751,-5.7511,-5.79,-5.7908,0,0,0,0,0,0,-5.7947,-5.7944,-5.7862,-5.7849,-5.7833,-5.7746,-5.7831,-5.7801,-5.7616,-5.7694,-5.7596,-5.7587,-5.7583,-5.7578,-5.7574,-5.7667,-5.7663,-5.7505,-5.7507,-5.7508,-5.7509,0,0,0,0,0,0,0,-5.7944,-5.7993,-5.7982,-5.7839,-5.7825,-5.7869,-5.7867,-5.7865,-5.7614,-5.7606,-5.7598,-5.7591,-5.7489,-5.7492,-5.7495,-5.7672,0,0,-5.7505,-5.7506,0,0,0,0,0,0,0,0,-5.7991,-5.7992,-5.7982,-5.798,-5.7979,-5.7869,-5.7867,-5.7866,-5.7612,-5.7606,-5.76,-5.7594,-5.749,-5.7492,-5.7495,0,0,0,0,0,0,0,0,0,0,0,0,0,0,0,-5.7982,-5.7981,0,-5.7869,-5.7867,-5.7866,-5.7611,-5.7606,-5.7601,-5.7596,-5.7491,-5.7493,-5.7495,0,0,0,0,0,0,0,0,0,0,0,0,0,0,0,0,0,0,0,0,0,0,0,0,0,0,0,0,0,0,0,0,0,0,0,0,0,0,0,0,0,0,0,0,0,0,0,0,0,0,0,0,0,0,0,0,0,0,0,0,0,0,0,0,0,0,0,0,0]}],[{"header":{"parameterUnit":"kt","parameterCategory":2,"dx":1,"dy":1,"la1":30.253999710083008,"la2":30.299108505249023,"lo1":-89.0895004272461,"lo2":-89.04439544677734,"nx":28,"ny":28,"refTime":"2022-09-17T21:00:00:Z","depth":0,"parameterNumber":2,"parameterNumberName":"V-component_of_WINDS"},"data":[-5.1516,-5.1558,-5.1542,-5.1583,-5.1576,-5.1601,-5.1605,-5.1608,-5.1606,-5.1635,-5.1648,-5.1636,-5.1628,-5.164,-5.1654,-5.1648,-5.1655,-5.1682,-5.167,-5.1563,-5.1547,-5.1531,-5.152,-5.1684,-5.1684,-5.1784,-5.1785,-5.1785,-5.1441,-5.1434,-5.1451,-5.1456,-5.147,-5.1435,-5.1436,-5.145,-5.1473,-5.1472,-5.1483,-5.1507,-5.1523,-5.1505,-5.1517,-5.1537,-5.152,-5.1542,-5.1539,-5.1539,-5.1423,-5.1411,-5.1555,-5.1555,-5.1555,-5.1555,-5.1555,-5.1555,-5.13,-5.1326,-5.1319,-5.1337,-5.1335,-5.1338,-5.136,-5.1344,-5.136,-5.1371,-5.1347,-5.1373,-5.1368,-5.1374,-5.1372,-5.1392,-5.1365,-5.1383,-5.1387,-5.1392,-5.14,-5.1259,-5.1393,-5.1393,-5.1392,-5.1392,-5.1392,0,-5.1192,-5.1176,-5.119,-5.12,-5.1212,-5.1217,-5.122,-5.1233,-5.1193,-5.1207,-5.1227,-5.1236,-5.1253,-5.1269,-5.1277,-5.127,-5.1233,-5.1227,-5.1239,-5.1251,-5.1261,-5.1256,-5.1068,-5.1223,-5.1222,-5.122,-5.122,-5.1219,-5.1048,-5.1079,-5.1063,-5.1076,-5.1072,-5.1093,-5.1101,-5.1063,-5.1074,-5.1071,-5.1095,-5.1111,-5.1122,-5.1156,-5.1136,-5.1148,-5.113,-5.1191,-5.1131,-5.1142,-5.113,-5.1129,-5.1132,-5.1203,-5.1205,-5.1207,-5.1208,0,-5.0969,-5.094,-5.0983,-5.0963,-5.0959,-5.0995,-5.0977,-5.1001,-5.0982,-5.1012,-5.1017,-5.0987,-5.1006,-5.0975,-5.0991,-5.0975,-5.1033,-5.1016,-5.1035,-5.103,-5.1081,-5.1077,-5.1254,-5.1275,-5.1105,-5.1106,-5.1108,0,-5.0834,-5.0877,-5.0831,-5.0858,-5.0904,-5.0864,-5.0911,-5.0899,-5.0892,-5.0915,-5.0868,-5.0891,-5.0847,-5.0866,-5.0841,-5.0883,-5.0886,-5.0876,-5.0869,-5.088,-5.0881,-5.0884,-5.0876,-5.0851,-5.085,-5.0849,-5.0849,0,-5.0712,-5.0737,-5.078,-5.0781,-5.0763,-5.0784,-5.0778,-5.0769,-5.0778,-5.0783,-5.0788,-5.0798,-5.0804,-5.0812,-5.078,-5.0741,-5.0831,-5.077,-5.082,-5.0821,-5.0841,-5.084,-5.1005,-5.0848,-5.0847,-5.0847,-5.0847,0,-5.0598,-5.0604,-5.0671,-5.0654,-5.0662,-5.0691,-5.0697,-5.0714,-5.0708,-5.0694,-5.0698,-5.0662,-5.0696,-5.0638,-5.0684,-5.0642,-5.065,-5.0643,-5.0646,-5.0646,-5.0582,-5.0679,-5.084,-5.0855,-5.0648,-5.0647,-5.0645,0,-5.0467,-5.0525,-5.049,-5.0554,-5.0576,-5.052,-5.0551,-5.0547,-5.053,-5.0547,-5.0528,-5.0547,-5.0497,-5.0499,-5.0526,-5.0507,-5.0562,-5.0499,-5.0524,-5.0525,-5.0527,-5.0675,-5.0706,-5.0808,-5.0623,-5.0626,-5.0627,0,-5.036,-5.0337,-5.035,-5.0349,-5.0336,-5.0354,-5.039,-5.0399,-5.0412,-5.0412,-5.0441,-5.0467,-5.043,-5.0433,-5.0404,-5.0434,-5.0524,-5.039,-5.0389,-5.0415,-5.061,-5.0639,-5.0657,-5.0498,-5.05,-5.0503,-5.061,0,-5.0195,-5.0219,-5.0255,-5.0253,-5.0262,-5.03,-5.0264,-5.0279,-5.0249,-5.023,-5.0271,-5.0258,-5.0268,-5.0278,-5.025,-5.0328,-5.031,-5.027,-5.021,-5.0308,-5.0342,-5.0356,-5.0162,-5.016,-5.0158,-5.0157,0,0,-5.0076,-5.011,-5.0068,-5.01,-5.0105,-5.0045,-5.0088,-5.0086,-5.0082,-5.0087,-5.0053,-5.0088,-5.0079,-5.0132,-5.016,-5.0164,-5.0174,-5.0141,-5.0262,-5.0274,-5.0284,-5.0322,-5.0337,-5.0154,-5.0153,-5.0153,-5.0152,0,-5.0007,-4.9999,-5.0042,-5.0037,-5.0029,-5.0005,-5.0016,-4.9996,-4.9986,-5.0025,-4.9974,-4.9995,-5.0023,-5.002,-5.0022,-5.0134,-5.0095,-5.014,-5.0212,-5.0246,-5.026,-5.0273,-5.0313,-5.0328,-5.0148,-5.0148,-5.0149,0,-4.9896,-4.9881,-4.9898,-4.9905,-4.9898,-4.9922,-4.9851,-4.9879,-4.9896,-4.9828,-4.9868,-4.9856,-4.9848,-4.9903,-4.9926,-4.9896,-5.0024,-4.9977,-4.9986,-4.9988,-5.0019,-5.0036,-5.0051,-4.9852,-4.9851,-4.985,0,0,-4.9841,-4.9863,-4.9834,-4.9887,-4.9887,-4.9852,-4.9861,-4.9832,-4.9826,-4.9824,-4.9807,-4.9803,-4.9819,-4.983,-4.9843,-4.9908,-4.9903,-4.9942,-4.9956,-4.9967,-4.9975,-5.001,-5.0026,-4.9847,-4.9847,-4.9847,0,0,-4.9815,-4.9783,-4.9754,-4.9811,-4.9807,-4.9782,-4.9816,-4.9779,-4.9787,-4.9778,-4.9731,-4.9727,-4.9778,-4.9768,-4.9727,-4.9821,-4.9763,-4.9771,-4.9826,-4.9843,-4.9856,-4.9857,-4.9651,0,0,0,0,0,-4.9725,-4.9787,-4.9761,-4.9765,-4.9773,-4.9796,-4.9797,-4.9759,-4.9718,-4.9746,-4.9726,-4.9683,-4.9736,-4.9699,-4.9704,-4.9749,-4.9804,-4.9812,-4.9819,-4.9904,-4.9922,-4.9937,0,0,0,0,0,0,-4.9727,-4.9732,-4.9759,-4.9738,-4.9739,-4.9794,-4.9717,-4.9708,-4.9714,-4.9706,-4.9688,-4.9682,-4.965,-4.9694,-4.9699,-4.9743,-4.965,-4.9807,-4.9813,-4.9819,-4.991,-4.9925,-4.9938,0,0,0,0,0,-4.9727,-4.9731,-4.9753,-4.9736,-4.9737,-4.9701,-4.9714,-4.9706,-4.971,-4.9679,-4.9672,-4.9681,-4.9652,-4.9654,-4.9697,-4.9741,-4.9646,-4.9648,-4.9811,-4.9816,-4.9821,-4.9917,0,0,0,0,0,0,-4.9728,-4.9724,-4.9753,-4.9752,-4.9709,-4.9697,-4.9694,-4.9705,-4.9682,-4.9676,-4.9669,-4.9663,-4.9655,-4.9655,-4.9657,-4.9743,-4.9643,-4.9645,-4.9646,-4.9815,-4.9819,-4.9823,0,0,0,0,0,0,-4.9722,-4.9724,-4.9752,-4.972,-4.9715,-4.9694,-4.9691,-4.9722,-4.9683,-4.9674,-4.9667,-4.9667,-4.9652,-4.9657,-4.9658,-4.9707,-4.9641,-4.9643,-4.9644,-4.9645,-4.9818,-4.9821,0,0,0,0,0,0,-4.9722,-4.9724,-4.972,-4.9717,-4.9712,-4.9697,-4.972,-4.973,-4.9656,-4.9676,-4.9648,-4.9645,-4.9655,-4.9655,-4.9659,-4.9708,-4.9707,-4.9641,-4.9642,-4.9643,-4.9644,0,0,0,0,0,0,0,-4.9722,-4.972,-4.9759,-4.9713,-4.9709,-4.9742,-4.9741,-4.9741,-4.9655,-4.9652,-4.9649,-4.9646,-4.963,-4.9632,-4.9634,-4.9709,0,0,-4.9641,-4.9642,0,0,0,0,0,0,0,0,-4.9718,-4.972,-4.9759,-4.9759,-4.9759,-4.9742,-4.9741,-4.9741,-4.9655,-4.9652,-4.965,-4.9647,-4.963,-4.9632,-4.9634,0,0,0,0,0,0,0,0,0,0,0,0,0,0,0,-4.9759,-4.9759,0,-4.9742,-4.9741,-4.9741,-4.9654,-4.9652,-4.965,-4.9648,-4.9631,-4.9632,-4.9634,0,0,0,0,0,0,0,0,0,0,0,0,0,0,0,0,0,0,0,0,0,0,0,0,0,0,0,0,0,0,0,0,0,0,0,0,0,0,0,0,0,0,0,0,0,0,0,0,0,0,0,0,0,0,0,0,0,0,0,0,0,0,0,0,0,0,0,0,0]}]]]